TimeCDT,TemperatureF,Dew PointF,Humidity,Sea Level PressureIn,VisibilityMPH,Wind Direction,Wind SpeedMPH,Gust SpeedMPH,PrecipitationIn,Events,Conditions,WindDirDegrees,DateUTC
12:56 AM,75.9,69.1,79,29.86,10.0,South,6.9,-,N/A,,Clear,180,2013-08-20 05:56:00
1:56 AM,73.0,68.0,84,29.86,10.0,South,8.1,-,N/A,,Clear,190,2013-08-20 06:56:00
2:56 AM,72.0,68.0,87,29.85,10.0,South,5.8,-,N/A,,Clear,180,2013-08-20 07:56:00
3:56 AM,71.1,66.9,87,29.84,10.0,South,5.8,-,N/A,,Clear,180,2013-08-20 08:56:00
4:56 AM,69.1,66.9,93,29.84,8.0,South,4.6,-,N/A,,Clear,180,2013-08-20 09:56:00
5:56 AM,68.0,66.0,93,29.85,7.0,Calm,Calm,-,N/A,,Clear,0,2013-08-20 10:56:00
6:56 AM,66.9,64.9,93,29.86,4.0,Calm,Calm,-,N/A,Fog,Shallow Fog,0,2013-08-20 11:56:00
7:56 AM,70.0,68.0,93,29.88,5.0,Calm,Calm,-,N/A,,Clear,0,2013-08-20 12:56:00
8:56 AM,72.0,68.0,87,29.88,7.0,Calm,Calm,-,N/A,,Clear,0,2013-08-20 13:56:00
9:56 AM,77.0,69.1,76,29.87,8.0,ESE,3.5,-,N/A,,Clear,110,2013-08-20 14:56:00
10:56 AM,80.1,71.1,74,29.87,10.0,South,4.6,-,N/A,,Clear,190,2013-08-20 15:56:00
11:56 AM,82.0,72.0,71,29.87,10.0,South,3.5,-,N/A,,Clear,180,2013-08-20 16:56:00
12:56 PM,84.0,73.0,69,29.86,10.0,SW,4.6,-,N/A,,Partly Cloudy,220,2013-08-20 17:56:00
1:56 PM,87.1,71.1,59,29.85,10.0,South,6.9,-,N/A,,Clear,180,2013-08-20 18:56:00
2:56 PM,88.0,70.0,55,29.85,10.0,South,10.4,-,N/A,,Clear,170,2013-08-20 19:56:00
3:56 PM,89.1,64.9,45,29.83,10.0,South,9.2,-,N/A,,Partly Cloudy,190,2013-08-20 20:56:00
4:56 PM,88.0,68.0,51,29.83,10.0,SSE,8.1,-,N/A,,Mostly Cloudy,160,2013-08-20 21:56:00
5:56 PM,87.1,70.0,57,29.82,10.0,South,12.7,-,N/A,,Mostly Cloudy,170,2013-08-20 22:56:00
6:56 PM,84.9,73.9,69,29.83,10.0,South,12.7,-,N/A,,Scattered Clouds,180,2013-08-20 23:56:00
7:56 PM,84.0,75.0,74,29.82,10.0,South,9.2,-,N/A,,Partly Cloudy,170,2013-08-21 00:56:00
8:56 PM,82.0,75.0,79,29.84,10.0,South,10.4,-,N/A,,Partly Cloudy,170,2013-08-21 01:56:00
9:56 PM,80.1,73.9,81,29.84,10.0,South,11.5,-,N/A,,Mostly Cloudy,180,2013-08-21 02:56:00
10:56 PM,78.1,73.0,84,29.83,10.0,South,10.4,-,N/A,,Mostly Cloudy,180,2013-08-21 03:56:00
11:56 PM,77.0,72.0,84,29.85,10.0,South,9.2,-,N/A,,Scattered Clouds,190,2013-08-21 04:56:00